This demonstration page uses our WeatherBlox Daily Observations layout. Learn more.

38.89511, -77.03637

Hourly Observations for April 14, 2015

Temp ( °F °C ) Dew Point ( °F °C ) Humidity (%) Winds ( mph kmh ) Pressure ( in mb ) Visibility ( mi km ) Precip ( " mm )
12:52 am 00:52 Partly Cloudy 65 18.3 52 11.1 63 63 S 9 15 30.13 1020 10 16.0934 0 0
1:52 am 01:52 Mostly Cloudy 65 18.3 53 11.7 66 66 S 9 15 30.12 1020 10 16.0934 0 0
2:52 am 02:52 Mostly Cloudy 64 17.8 54 12.2 70 70 S 10 17 30.1 1019 10 16.0934 0 0
3:52 am 03:52 Mostly Cloudy 64 17.8 55 12.8 73 73 S 8 13 30.1 1019 10 16.0934 0 0
4:52 am 04:52 Cloudy 65 18.3 56 13.3 73 73 S 8 13 30.1 1019 10 16.0934 0 0
5:52 am 05:52 Cloudy with Light Rain 63 17.2 58 14.4 84 84 SSW 7 11 30.12 1020 5 8.0467 0.03 0.762
6:52 am 06:52 Cloudy with Light Rain 62 16.7 58 14.4 86 86 S 3 6 30.14 1021 6 9.65604 0.1 2.54
7:14 am 07:14 Cloudy with Light Rain 63 17 57 14 83 83 S 3 6 30.15 1021 3 4.82802 0 0
7:52 am 07:52 Cloudy with Light Rain 62 16.7 59 15 90 90 S 6 9 30.14 1021 4 6.43736 0.09 2.286
8:52 am 08:52 Cloudy with Light Rain 63 17.2 59 15 87 87 SSW 7 11 30.14 1021 7 11.26538 0.01 0.254
9:18 am 09:18 Cloudy with Light Rain 63 17 59 15 88 88 S 7 11 30.15 1021 7 11.26538 0 0
9:23 am 09:23 Cloudy with Light Rain 63 17 59 15 88 88 S 8 13 30.15 1021 7 11.26538 0.01 0.254
9:52 am 09:52 Cloudy with Light Rain 64 17.8 60 15.6 87 87 NNW 3 6 30.15 1021 6 9.65604 0.03 0.762
10:04 am 10:04 Cloudy with Light Rain 64 18 61 16 88 88 Calm 30.15 1021 5 8.0467 0 0
10:24 am 10:24 Cloudy with Light Rain 64 18 61 16 88 88 Calm 30.15 1021 8 12.87472 0 0
10:52 am 10:52 Cloudy with Light Rain 65 18.3 60 15.6 84 84 Calm 30.15 1021 7 11.26538 0.02 0.508
11:04 am 11:04 Cloudy with Light Rain 64 18 61 16 88 88 Calm 30.15 1021 7 11.26538 0 0
11:28 am 11:28 Cloudy 66 19 61 16 83 83 Calm 30.15 1021 9 14.48406 0 0
11:52 am 11:52 Cloudy with Light Rain 66 18.9 61 16.1 84 84 Calm 30.14 1021 8 12.87472 0 0.0254
12:18 pm 12:18 Cloudy with Light Rain 66 19 61 16 83 83 NE 7 11 30.15 1021 7 11.26538 0 0
12:52 pm 12:52 Cloudy with Light Rain 66 18.9 62 16.7 87 87 NNE 15 24 30.13 1020 4 6.43736 0.03 0.762
1:05 pm 13:05 Cloudy with Light Rain 64 18 57 14 78 78 NNE 18 30 30.15 1021 5 8.0467 0 0.0254
1:39 pm 13:39 Cloudy with Light Rain 63 17 57 14 83 83 NNE 12 19 30.15 1021 2.5 4.02335 0.03 0.762
1:52 pm 13:52 Cloudy with Light Rain 62 16.7 57 13.9 84 84 NE 15 24 30.14 1021 2 3.21868 0.04 1.016
1:58 pm 13:58 Cloudy with Light Rain 63 17 57 14 83 83 NNE 14 22 30.15 1021 2 3.21868 0 0
2:09 pm 14:09 Cloudy with Light Rain 63 17 57 14 83 83 NNE 16 26 30.15 1021 3 4.82802 0.03 0.762
2:52 pm 14:52 Cloudy with Rain 60 15.6 55 12.8 84 84 N 14 22 30.14 1021 3 4.82802 0.09 2.286
3:52 pm 15:52 Cloudy with Light Rain 57 13.9 51 10.6 81 81 NE 18 30 30.12 1020 4 6.43736 0.12 3.048
4:09 pm 16:09 Cloudy with Light Rain 55 13 50 10 82 82 NNE 10 17 30.12 1020 6 9.65604 0.01 0.254
4:52 pm 16:52 Cloudy with Light Rain 56 13.3 49 9.4 77 77 NE 12 19 30.12 1020 7 11.26538 0.04 1.016
5:52 pm 17:52 Cloudy with Light Rain 56 13.3 50 10 81 81 NNE 10 17 30.11 1020 10 16.0934 0.03 0.762
6:52 pm 18:52 Cloudy with Light Rain 56 13.3 46 7.8 70 70 NNE 8 13 30.12 1020 10 16.0934 0 0.0254
7:52 pm 19:52 Cloudy 56 13.3 43 6.1 62 62 NNE 7 11 30.13 1020 10 16.0934 0 0.0254
8:52 pm 20:52 Cloudy with Light Rain 55 12.8 44 6.7 67 67 NE 8 13 30.14 1021 10 16.0934 0.01 0.254
9:52 pm 21:52 Cloudy with Light Rain 55 12.8 45 7.2 69 69 Calm 30.15 1021 10 16.0934 0 0.0254
10:52 pm 22:52 Cloudy 56 13.3 49 9.4 77 77 N 6 9 30.16 1021 10 16.0934 0 0.0254
11:52 pm 23:52 Cloudy 57 13.9 45 7.2 64 64 N 6 9 30.14 1021 10 16.0934 0 0.0254

Powered by AerisWeather